Regional Weather Roundup
Issued by NWS

Home | Current Version | Previous Version | Graphics & Text | Print | Product List | Glossary On
Versions: 1 2 3 4 5 6 7 8 9 10 11 12 13 14 15 16 17 18 19 20 21 22 23 24 25 26 27 28 29 30 31 32 33 34 35 36 37 38 39 40 41 42 43 44 45 46 47 48 49 50
000
ASUS43 KIND 061009
RWRIN

WEATHER ROUNDUP FOR INDIANA
NATIONAL WEATHER SERVICE INDIANAPOLIS IN
600 AM EDT MON JUL 06 2015

NOTE: "FAIR" INDICATES FEW OR NO CLOUDS BELOW 12,000 FEET WITH NO
SIGNIFICANT WEATHER AND/OR OBSTRUCTIONS TO VISIBILITY.

* - STATION DOES NOT REPORT WEATHER SUCH AS PRECIPITATION OR FOG.

+ - STATION NOT QUALITY CONTROLLED BY THE NATIONAL WEATHER SERVICE.
    USE DATA WITH CAUTION...ESPECIALLY DEWPOINT AND RELATIVE
    HUMIDITY OBSERVATIONS.

INZ001>003-010>013-019-020-061100-
NORTHWEST INDIANA

CITY           SKY/WX    TMP DP  RH WIND       PRES   REMARKS
GARY /AIRPORT/ CLEAR    N/A N/A N/A S8        30.01F
KNOX *+        CLEAR     63  63 100 CALM      30.03S
LA PORTE +     CLEAR     62  62 100 CALM      30.05R
MICHIGAN CITY+ CLEAR     66  64  94 S3        30.03F
MONTICELLO +   CLEAR     64  64  99 CALM      30.04S
RENSSELAER +   CLEAR     64  64 100 CALM      30.05S FOG
VALPARAISO     PTCLDY    62  61  96 CALM      30.04F FOG

$$

LMZ046-743>745-061100-
SOUTHERN LAKE MICHIGAN

STATION/POSITION TIME  TEMP    WIND        PRES    WAVE
                       AIR SEA DIR/SP/G            HT
                 (UTC) (F)     (DEG/KT/KT) (MB)    (FT)
BURNS HARBOR     1000   69     180/  7/ 12 1017.3F
MICHIGAN CITY    1000   69     150/ 12/ 15   N/A
5NW MICH CITY    1000   67 66  190/  8/ 10   N/A     1

$$

INZ004-005-014>016-021>024-061100-
NORTH CENTRAL INDIANA

CITY           SKY/WX    TMP DP  RH WIND       PRES   REMARKS
GOSHEN         CLEAR     59  57  93 CALM      30.04F FOG
LOGANSPORT +   CLEAR     59  55  88 SE5       30.06S FOG
PERU/GRISSOM   CLEAR     64  61  90 SW2       30.05S
ROCHESTER +    CLEAR     68  64  88 CALM      30.05F
SOUTH BEND     CLEAR     63  59  87 CALM      30.05F
WARSAW +         N/A     59  59 100 CALM      30.06S FOG

$$

INZ006>009-017-018-025>027-061100-
NORTHEAST INDIANA

CITY           SKY/WX    TMP DP  RH WIND       PRES   REMARKS
ANGOLA *+        N/A     57  57 100 CALM      30.07F
AUBURN +       FOG       57  55  94 CALM      30.08S VSB 3/4
FORT WAYNE     CLEAR     60  58  92 CALM      30.08S
HUNTINGTON +   CLEAR     60  59  97 CALM      30.07S FOG

$$

INZ028-029-035-036-043>045-051>053-061100-
WEST CENTRAL INDIANA

CITY           SKY/WX    TMP DP  RH WIND       PRES   REMARKS
CRAWFORDSVL +  CLEAR     61  61  98 CALM      30.07R FOG
GREENCASTLE +  FOG       63  59  88 CALM      30.07R VSB 3/4
LAFAYETTE      CLEAR     63  61  93 CALM      30.05R FOG
TERRE HAUTE    CLEAR     66  65  96 CALM      30.07R FOG

$$

INZ030>032-037>040-046>048-054>057-064-065-061100-
CENTRAL INDIANA

CITY           SKY/WX    TMP DP  RH WIND       PRES   REMARKS
CP ATTERBURY +   N/A     59  57  94 CALM      30.08S FOG
FISHERS *+     CLEAR     59  59 100 CALM      30.07
FRANKFORT +    CLEAR    N/A N/A N/A CALM      30.08S FOG
GREENWOOD *+   CLEAR     61  59  94 CALM      30.08R
INDIANAPOLIS   CLEAR     65  61  87 W6        30.05S
-EAGLE CREEK   CLEAR     64  63  96 CALM      30.06R FOG
KOKOMO *+      CLEAR     63  57  82 SE5       30.06S
MARION +       CLEAR     59  58  97 CALM      30.08S FOG
MT COMFORT *+    N/A     59 N/A N/A CALM      30.08R VSB 1/4
SHELBYVILLE    CLEAR     61  59  93 E6        30.08R FOG
ZIONSVILLE +     N/A     61  58  90 CALM      30.08R FOG

$$

INZ033-034-041-042-049-050-058-059-061100-
EAST CENTRAL INDIANA

CITY           SKY/WX    TMP DP  RH WIND       PRES   REMARKS
MUNCIE         CLEAR     62  59  90 CALM      30.08S FOG

$$

INZ060-061-067>069-081>083-085>088-061100-
SOUTHWEST INDIANA

CITY           SKY/WX    TMP DP  RH WIND       PRES   REMARKS
EVANSVILLE     PTCLDY    70  67  90 CALM      30.07R FOG
HUNTINGBURG *+ CLEAR     66  63  88 SE5       30.08R
WASHINGTON +   CLEAR     65  61  87 CALM      30.06R FOG

$$

INZ062-063-066-070>080-084-089>092-061100-
SOUTH CENTRAL AND SOUTHEAST INDIANA

CITY           SKY/WX    TMP DP  RH WIND       PRES   REMARKS
BLOOMINGTON    PTCLDY    62  61  96 CALM      30.08R FOG
MADISON *+     CLEAR     61  59  94 CALM      30.11R
NORTH VERNON + CLEAR     61  61 100 CALM      30.09R FOG
SEYMOUR +      FOG       61  61 100 CALM      30.08R VSB 1/2

$$



USA.gov is the U.S. government's official web portal to all federal, state and local government web resources and services.